Weather History for Macomb, IL

Change the Weather History Date:

Wednesday, November 6, 2013

  Actual Average (KBRL) Record (KBRL)
Temperature  
Mean Temperature 46 °F 47 °F  
Max Temperature 59 °F 57 °F 77 °F (1916)
Min Temperature 32 °F 38 °F 15 °F (1991)
Degree Days  
Heating Degree Days 20 18  
Month to date heating degree days 101  
Since 1 July heating degree days 495  
Cooling Degree Days 0 0  
Month to date cooling degree days 0  
Year to date cooling degree days 1206  
Moisture  
Dew Point 43 °F    
Average Humidity 91    
Maximum Humidity 99    
Minimum Humidity 66    
Precipitation  
Precipitation 0.00 in 0.09 in 0.61 in (2000)
Month to date precipitation 0.54  
Year to date precipitation 34.43  
Sea Level Pressure  
Sea Level Pressure 30.06 in    
Wind  
Wind Speed 14 mph (West)    
Max Wind Speed 24 mph    
Max Gust Speed 29 mph    
Visibility 9 miles    
Events Rain , Thunderstorm    
T = Trace of Precipitation, MM = Missing Value Source: NWS Daily Summary

Daily Weather History Graph

Daily Weather History Graph

Search for Another Location

Airport:

Trip Planner

Search our weather history database for the weather conditions in past years. The results will help you decide how hot, cold, wet, or windy it might be!

Date:

Astronomy

Nov. 06, 2013 Rise Set
Actual Time 6:38 AM CST 4:53 PM CST
Civil Twilight 6:10 AM CST 5:21 PM CST
Nautical Twilight 5:37 AM CST 5:54 PM CST
Astronomical Twilight 5:05 AM CST 6:26 PM CST
Moon 9:54 AM CST (11/6) 7:57 PM CST (11/6)
Length of Visible Light 11h 11m
Length of Day
10h 14m
Waxing Crescent, 14% of the Moon is Illuminated
Nov 6
Waxing Crescent
Nov 9
First Quarter
Nov 17
Full
Nov 25
Last Quarter
Dec 2
New

Hourly Weather History & Observations

Time (CST) Temp. Windchill Dew Point Humidity Pressure Visibility Wind Dir Wind Speed Gust Speed Precip Events Conditions
12:15 AM 56.3 °F - 55.6 °F 97% 29.93 in 5.0 mi South 13.8 mph 21.9 mph N/A Rain Light Rain
12:35 AM 56.3 °F - 55.8 °F 98% 29.92 in 10.0 mi South 13.8 mph 21.9 mph N/A Rain Light Rain
12:55 AM 56.5 °F - 55.9 °F 98% 29.92 in 7.0 mi South 16.1 mph 21.9 mph N/A Rain Light Rain
1:15 AM 56.5 °F - 55.9 °F 98% 29.90 in 10.0 mi South 15.0 mph 20.7 mph N/A   Overcast
1:35 AM 56.5 °F - 55.9 °F 98% 29.90 in 7.0 mi South 12.7 mph 19.6 mph N/A Rain Light Rain
1:55 AM 56.7 °F - 56.1 °F 98% 29.89 in 7.0 mi South 11.5 mph - N/A Rain Light Rain
2:15 AM 56.7 °F - 56.3 °F 99% 29.88 in 5.0 mi South 15.0 mph 20.7 mph N/A Rain Light Rain
2:35 AM 56.8 °F - 56.3 °F 98% 29.88 in 10.0 mi SSW 10.4 mph - N/A Rain Light Rain
2:55 AM 57.2 °F - 56.5 °F 97% 29.87 in 7.0 mi SSW 10.4 mph - N/A Rain Heavy Rain
3:15 AM 57.2 °F - 56.7 °F 98% 29.89 in 3.0 mi SSW 12.7 mph - N/A Rain , Thunderstorm Rain
3:35 AM 57.4 °F - 56.8 °F 98% 29.87 in 5.0 mi South 11.5 mph - N/A Rain Rain
3:55 AM 57.6 °F - 57.2 °F 99% 29.86 in 10.0 mi South 11.5 mph - N/A Rain Light Rain
4:15 AM 58.1 °F - 57.6 °F 98% 29.86 in 7.0 mi South 12.7 mph - N/A Rain Light Rain
4:35 AM 58.1 °F - 57.4 °F 97% 29.85 in 10.0 mi South 10.4 mph - N/A   Overcast
4:55 AM 58.5 °F - 57.9 °F 98% 29.86 in 10.0 mi South 10.4 mph - N/A   Overcast
5:15 AM 58.6 °F - 58.1 °F 98% 29.86 in 10.0 mi South 9.2 mph - N/A Rain Light Rain
5:35 AM 58.5 °F - 58.1 °F 99% 29.86 in 10.0 mi SSW 11.5 mph 18.4 mph N/A Rain Light Rain
5:55 AM 59.0 °F - 58.3 °F 97% 29.86 in 10.0 mi SSW 12.7 mph - N/A Rain Light Rain
6:15 AM 59.2 °F - 58.6 °F 98% 29.85 in 10.0 mi SSW 10.4 mph - N/A Rain Light Rain
6:35 AM 59.5 °F - 59.0 °F 98% 29.86 in 10.0 mi SW 11.5 mph - N/A Rain Light Rain
6:55 AM 52.3 °F - 52.2 °F 99% 29.88 in 10.0 mi WNW 13.8 mph - N/A Rain Light Rain
7:15 AM 50.0 °F - 49.6 °F 99% 29.90 in 10.0 mi West 17.3 mph 24.2 mph N/A Rain Light Rain
7:35 AM 48.4 °F - 48.0 °F 99% 29.92 in 10.0 mi West 19.6 mph 26.5 mph N/A Rain Light Rain
7:55 AM 46.0 °F 37.8 °F 45.7 °F 99% 29.94 in 7.0 mi West 23.0 mph 27.6 mph N/A Rain Light Rain
8:15 AM 45.3 °F 37.3 °F 45.0 °F 99% 29.95 in 10.0 mi WNW 20.7 mph 25.3 mph N/A Rain Light Rain
8:35 AM 44.2 °F 35.9 °F 43.9 °F 99% 29.96 in 3.0 mi West 20.7 mph - N/A   Overcast
8:55 AM 43.7 °F 34.5 °F 43.2 °F 98% 29.97 in 10.0 mi WNW 24.2 mph - N/A   Overcast
9:15 AM 43.2 °F 35.0 °F 42.8 °F 99% 29.98 in 10.0 mi WNW 18.4 mph 21.9 mph N/A   Overcast
9:35 AM 42.8 °F 34.8 °F 42.3 °F 98% 30.02 in 10.0 mi WNW 17.3 mph - N/A   Overcast
9:55 AM 42.4 °F 35.0 °F 42.1 °F 99% 30.02 in 10.0 mi WNW 15.0 mph 25.3 mph N/A   Overcast
10:15 AM 42.3 °F 33.8 °F 41.9 °F 99% 30.03 in 10.0 mi WNW 18.4 mph 28.8 mph N/A   Overcast
10:35 AM 41.9 °F 33.4 °F 41.4 °F 98% 30.03 in 10.0 mi NW 18.4 mph - N/A   Overcast
10:55 AM 42.4 °F 33.5 °F 42.1 °F 99% 30.04 in 10.0 mi WNW 20.7 mph 25.3 mph N/A   Overcast
11:15 AM 41.9 °F 32.8 °F 41.5 °F 99% 30.05 in 10.0 mi NW 20.7 mph 27.6 mph N/A   Overcast
11:35 AM 41.9 °F 32.6 °F 41.4 °F 98% 30.05 in 10.0 mi NW 21.9 mph 25.3 mph N/A   Overcast
11:55 AM 41.9 °F 32.3 °F 41.5 °F 99% 30.06 in 10.0 mi NW 23.0 mph 27.6 mph N/A   Overcast
12:15 PM 41.5 °F 33.2 °F 41.2 °F 99% 30.06 in 10.0 mi NW 17.3 mph 25.3 mph N/A   Overcast
12:35 PM 41.9 °F 34.0 °F 41.7 °F 99% 30.07 in 10.0 mi NW 16.1 mph 23.0 mph N/A   Overcast
12:55 PM 42.4 °F 34.1 °F 42.1 °F 99% 30.08 in 10.0 mi NW 18.4 mph 25.3 mph N/A   Overcast
1:15 PM 44.4 °F 36.6 °F 43.9 °F 98% 30.08 in 10.0 mi NW 18.4 mph 24.2 mph N/A   Overcast
1:35 PM 44.8 °F 37.7 °F 40.8 °F 86% 30.09 in 10.0 mi NW 16.1 mph 21.9 mph N/A   Overcast
1:55 PM 45.5 °F 38.6 °F 39.2 °F 79% 30.10 in 10.0 mi NW 16.1 mph 23.0 mph N/A   Overcast
2:15 PM 45.9 °F 40.0 °F 39.4 °F 78% 30.11 in 10.0 mi NW 12.7 mph - N/A   Overcast
2:35 PM 46.2 °F 39.3 °F 38.3 °F 74% 30.12 in 10.0 mi WNW 17.3 mph 24.2 mph N/A   Overcast
2:55 PM 46.4 °F 39.5 °F 38.3 °F 73% 30.13 in 10.0 mi NW 17.3 mph - N/A   Overcast
3:15 PM 46.6 °F - 37.9 °F 72% 30.13 in 10.0 mi NW 11.5 mph 19.6 mph N/A   Overcast
3:35 PM 46.4 °F 42.4 °F 37.9 °F 72% 30.14 in 10.0 mi NW 8.1 mph 17.3 mph N/A   Mostly Cloudy
3:55 PM 46.8 °F - 38.8 °F 74% 30.15 in 10.0 mi NW 10.4 mph - N/A   Mostly Cloudy
4:15 PM 48.2 °F - 37.4 °F 66% 30.15 in 10.0 mi NW 15.0 mph 21.9 mph N/A   Mostly Cloudy
4:35 PM 46.6 °F - 36.5 °F 68% 30.16 in 10.0 mi NW 11.5 mph - N/A   Scattered Clouds
4:55 PM 45.5 °F 40.3 °F 36.7 °F 71% 30.17 in 10.0 mi NW 10.4 mph - N/A   Clear
5:15 PM 44.1 °F 38.6 °F 36.5 °F 75% 30.18 in 10.0 mi NW 10.4 mph - N/A   Clear
5:35 PM 43.3 °F 37.7 °F 35.1 °F 73% 30.19 in 10.0 mi NW 10.4 mph - N/A   Clear
5:55 PM 41.7 °F 36.7 °F 34.7 °F 76% 30.20 in 10.0 mi WNW 8.1 mph - N/A   Clear
6:15 PM 39.6 °F 34.7 °F 34.0 °F 80% 30.21 in 10.0 mi WNW 6.9 mph - N/A   Clear
6:35 PM 38.7 °F 33.6 °F 33.8 °F 83% 30.22 in 10.0 mi WNW 6.9 mph - N/A   Clear
6:55 PM 37.8 °F 32.5 °F 32.9 °F 83% 30.22 in 10.0 mi WNW 6.9 mph - N/A   Clear
7:15 PM 36.7 °F 32.0 °F 32.4 °F 84% 30.22 in 10.0 mi WNW 5.8 mph - N/A   Clear
7:35 PM 35.4 °F 29.7 °F 32.0 °F 87% 30.22 in 10.0 mi West 6.9 mph - N/A   Clear
7:55 PM 35.2 °F 28.1 °F 32.0 °F 88% 30.23 in 10.0 mi West 9.2 mph - N/A   Clear
8:15 PM 36.0 °F 29.0 °F 32.2 °F 86% 30.23 in 10.0 mi West 9.2 mph - N/A   Clear
8:35 PM 35.6 °F 29.9 °F 32.0 °F 87% 30.23 in 10.0 mi West 6.9 mph - N/A   Clear
8:55 PM 34.9 °F 28.3 °F 31.5 °F 87% 30.24 in 10.0 mi West 8.1 mph - N/A   Clear
9:15 PM 34.5 °F 27.3 °F 31.6 °F 89% 30.25 in 10.0 mi West 9.2 mph - N/A   Clear
9:35 PM 34.3 °F 27.7 °F 31.1 °F 88% 30.26 in 10.0 mi West 8.1 mph - N/A   Clear
9:55 PM 34.0 °F 28.0 °F 31.1 °F 89% 30.26 in 10.0 mi West 6.9 mph - N/A   Clear
10:15 PM 33.6 °F 27.5 °F 30.7 °F 89% 30.27 in 10.0 mi West 6.9 mph - N/A   Clear
10:35 PM 33.8 °F 27.0 °F 31.1 °F 90% 30.27 in 10.0 mi West 8.1 mph - N/A   Clear
10:55 PM 32.9 °F 26.7 °F 30.2 °F 90% 30.28 in 10.0 mi West 6.9 mph - N/A   Clear
11:15 PM 33.4 °F 25.9 °F 30.6 °F 89% 30.27 in 10.0 mi West 9.2 mph - N/A   Clear
11:35 PM 32.9 °F 25.9 °F 30.2 °F 90% 30.27 in 10.0 mi WNW 8.1 mph - N/A   Clear
11:55 PM 32.2 °F 24.4 °F 30.0 °F 92% 30.28 in 10.0 mi West 9.2 mph - N/A   Clear